Wind_Speed
9 10 12 13 14 14 15 15 16 16 16 16 17 18 20 21 20 19 18 17 19 21 21 20 19 20 21 21 21 20 20 19 18 18 18 18 18 17 16 16 16 16 15 13 12 11 11 8 7 7 6 6 6 7 8 8 7 6 5 5 6 7 6
8 10 12 13 14 15 16 16 17 17 17 17 17 17 19 20 20 20 19 19 19 21 21 21 21 21 21 21 20 20 20 20 19 19 20 20 19 19 19 18 18 17 16 15 14 13 12 10 9 8 8 7 7 7 8 8 7 6 5 6 6 6 6
8 10 11 12 14 16 17 18 19 19 18 18 18 18 19 19 20 21 21 20 20 21 22 23 23 23 23 22 21 21 20 21 20 20 21 22 21 21 21 21 20 18 18 17 17 16 14 12 11 10 9 8 8 8 8 7 7 6 5 7 7 6 7
9 11 11 12 13 15 17 19 20 21 21 20 19 19 19 19 20 20 21 21 22 22 22 23 24 24 25 25 24 22 22 21 20 20 22 23 23 22 22 22 21 20 20 19 19 18 16 14 12 12 11 9 8 9 8 7 7 6 7 8 7 7 8
11 12 13 13 13 15 17 19 21 22 22 22 21 20 19 20 20 20 21 22 22 23 23 22 23 24 26 28 27 25 23 22 21 20 21 23 24 23 23 23 22 22 21 21 20 19 17 15 14 13 13 10 8 9 8 7 7 7 7 7 8 9 9
13 13 14 15 15 15 17 19 21 22 23 23 23 22 21 21 21 21 21 21 22 23 23 23 23 23 25 28 29 27 24 22 22 21 21 23 24 25 24 24 23 22 21 22 22 20 18 17 16 15 14 11 9 9 8 7 7 7 6 7 8 9 10
15 15 15 15 16 17 17 18 20 22 23 23 24 24 23 23 22 21 21 21 21 22 24 24 23 23 24 26 28 28 26 24 23 23 22 23 24 25 26 26 25 23 22 22 23 23 21 19 17 16 15 12 10 10 9 8 8 8 7 8 9 10 10
16 16 16 17 17 18 19 19 20 21 22 24 24 25 25 25 24 23 21 20 21 22 23 24 24 24 24 25 27 28 27 26 26 25 24 24 25 25 26 26 25 24 23 23 24 25 23 21 19 18 17 15 13 12 11 10 10 10 10 10 10 10 10
18 17 17 18 18 19 19 20 20 20 22 24 24 25 25 26 26 24 23 22 22 22 23 24 25 25 25 25 26 27 27 27 27 27 26 26 26 26 26 26 26 26 24 24 25 26 26 24 22 21 20 18 15 14 13 12 11 11 12 11 11 11 11
19 18 18 18 19 20 20 21 21 21 22 23 24 25 26 26 26 26 25 25 23 22 23 24 25 26 26 25 25 26 27 27 27 28 28 28 28 28 28 28 29 28 26 26 26 27 28 27 25 24 22 20 18 16 14 13 13 15 15 14 13 13 13
21 20 19 19 20 21 21 21 21 21 22 24 25 26 27 27 28 28 27 27 26 25 24 25 26 26 27 27 26 27 27 27 27 28 29 30 30 29 29 29 30 30 28 28 27 28 30 30 28 26 24 22 20 19 17 16 17 17 17 16 15 14 14
22 21 20 20 21 22 22 22 22 22 22 24 25 27 29 29 30 30 29 28 28 28 26 26 27 27 27 28 28 29 29 28 28 29 29 30 30 30 30 30 31 31 30 29 28 28 30 31 29 28 26 24 22 22 20 18 18 18 17 17 16 15 16
22 21 21 21 22 22 22 22 22 22 23 24 25 27 29 31 31 31 30 30 30 30 29 28 27 27 27 28 29 30 31 30 31 31 30 31 31 31 31 30 31 32 32 31 30 29 30 31 30 29 28 26 25 24 22 20 20 18 17 17 16 17 18
22 22 22 21 22 22 22 21 22 22 22 23 24 26 28 31 33 33 32 32 32 32 31 29 27 27 28 28 28 30 30 31 32 32 31 31 31 31 30 30 30 31 33 33 31 30 31 31 30 30 29 29 28 26 24 23 22 20 18 17 16 17 19
22 22 22 22 22 22 21 20 21 21 21 22 24 25 27 29 32 34 35 34 33 33 32 31 30 29 29 29 29 29 30 31 32 32 31 31 32 32 31 30 28 29 33 35 34 32 31 31 31 31 31 31 30 28 26 25 24 22 20 17 16 17 19
22 22 22 22 22 22 21 20 20 21 21 21 23 25 26 28 30 33 35 35 35 34 33 33 32 31 31 31 30 29 29 30 31 32 32 32 32 33 33 32 29 28 32 36 35 33 32 31 32 33 33 32 32 31 29 28 26 24 22 19 17 17 18
21 22 21 20 21 21 21 20 21 21 21 22 23 25 26 28 29 31 34 35 36 35 35 34 34 34 33 32 30 29 29 29 30 31 32 32 32 33 33 32 30 28 30 34 36 35 33 32 33 35 35 35 34 34 31 28 27 26 25 22 19 20 21
21 20 19 19 20 21 22 22 22 22 23 23 24 25 26 28 29 31 33 35 36 36 36 35 35 35 34 32 30 29 29 29 29 30 30 31 32 32 33 33 31 29 30 33 36 36 35 33 33 35 37 36 35 35 32 29 28 28 28 25 22 23 25
20 19 18 18 19 21 22 24 24 25 25 25 25 25 26 27 29 31 33 34 36 36 36 36 36 36 35 33 31 30 30 30 30 31 30 31 31 32 33 34 33 31 31 31 33 36 36 34 33 35 37 37 36 35 33 31 30 30 29 26 24 26 28
20 18 16 16 18 20 22 25 27 28 28 27 27 27 27 28 29 31 32 34 36 37 37 37 38 38 37 36 34 33 32 31 31 31 31 31 32 32 32 33 33 33 32 31 31 33 36 36 35 35 36 37 37 35 34 33 33 33 31 27 26 27 29
20 18 16 16 17 19 21 24 27 29 30 30 30 29 29 29 30 31 32 33 35 37 39 39 39 39 39 38 37 35 35 34 32 32 32 32 32 31 31 31 32 33 33 32 31 32 35 37 37 36 36 37 37 36 35 35 35 35 33 29 27 29 30
19 18 18 19 19 20 22 24 26 28 29 30 30 30 31 31 31 32 32 32 34 37 39 40 41 41 40 40 39 38 37 36 34 33 32 32 31 31 30 30 31 32 33 34 33 33 34 37 39 39 39 39 39 38 36 35 35 36 35 30 28 30 31
20 21 22 23 22 23 24 26 26 27 27 27 27 28 30 30 31 32 32 32 33 36 38 39 41 42 42 42 41 40 39 38 36 35 33 33 32 31 30 29 30 31 32 33 34 34 35 37 39 41 41 41 41 40 38 36 36 36 35 31 30 31 32
22 24 26 27 27 27 27 27 27 26 26 26 26 26 27 28 29 30 30 30 32 35 37 38 39 42 43 44 44 43 42 40 39 37 36 35 34 32 31 31 30 31 32 32 32 34 35 37 39 40 41 41 41 42 41 38 37 37 35 32 31 31 32
25 28 29 29 30 31 30 28 27 26 26 26 26 25 25 26 26 26 28 29 31 34 36 37 38 40 42 44 45 46 45 44 42 40 38 37 36 34 34 33 32 32 32 32 32 33 34 36 37 39 41 41 42 43 43 41 39 37 34 33 32 32 32
28 30 31 31 33 33 33 30 27 25 24 24 24 23 23 23 24 25 26 28 31 34 35 36 36 37 39 41 43 44 45 45 43 41 40 38 38 37 36 35 34 34 33 33 33 33 33 34 36 39 40 41 42 43 44 44 42 39 36 35 34 32 32
30 31 32 33 34 35 33 29 25 22 21 21 22 21 21 21 22 24 25 28 30 33 34 34 34 34 35 37 38 40 41 42 42 41 40 39 39 39 38 38 37 36 35 36 35 34 34 35 36 37 39 40 41 42 43 44 44 42 39 37 35 32 31
31 32 32 34 35 33 29 25 21 21 21 21 20 19 18 19 21 23 24 27 29 31 32 33 32 30 30 32 34 36 37 38 39 39 39 39 38 39 39 40 39 38 37 37 37 36 37 37 36 36 37 39 39 39 41 43 45 45 41 37 35 33 31
31 32 33 34 33 28 23 20 19 19 20 20 18 17 17 17 19 20 22 24 26 28 29 30 29 27 26 28 30 33 34 36 37 38 38 38 38 38 38 39 40 39 38 38 38 38 39 38 37 36 35 37 38 39 40 40 43 45 42 37 35 34 32
31 32 33 32 28 23 20 19 19 19 20 19 18 17 16 16 16 18 20 21 22 25 26 26 25 23 23 24 26 29 31 33 34 35 36 37 37 37 37 38 39 39 39 39 38 39 39 39 37 35 34 35 37 38 39 40 41 44 42 39 38 37 36
32 33 32 29 24 21 20 20 20 21 21 21 20 19 18 16 16 18 19 20 21 23 24 23 21 20 20 21 22 24 26 29 30 31 32 34 35 36 36 36 37 38 39 39 38 38 39 38 36 33 32 34 36 38 40 40 40 41 40 40 40 39 39
32 32 30 26 23 21 21 22 22 22 21 21 20 20 19 17 16 17 18 19 20 21 22 20 18 17 18 18 19 20 22 24 26 28 29 30 32 34 35 36 36 36 37 38 37 37 36 35 34 32 32 33 34 35 38 39 39 41 42 43 42 39 38
31 31 28 25 24 23 24 24 24 24 23 22 21 20 19 18 17 17 18 19 19 20 20 18 17 16 17 17 17 17 19 21 23 25 27 27 28 30 32 34 35 34 35 35 34 34 32 30 30 30 31 33 33 31 31 32 34 39 44 46 46 40 36
31 30 27 25 25 25 27 27 27 26 26 24 22 20 19 19 17 17 18 19 20 20 20 18 17 16 15 15 15 15 16 18 19 22 24 25 25 26 28 29 30 31 31 31 30 30 27 25 26 26 25 29 33 32 30 28 28 33 39 42 41 38 36
31 28 26 25 26 27 29 29 29 29 27 25 22 19 19 19 17 17 18 20 21 21 20 18 17 15 14 13 14 14 15 16 17 18 20 22 23 23 24 24 24 24 25 25 25 26 25 23 24 22 21 24 28 29 30 29 29 31 34 35 35 35 34
29 27 26 26 27 28 29 30 30 29 27 24 21 19 20 19 17 17 19 21 23 23 21 19 17 14 13 13 14 15 16 16 16 16 18 20 21 21 21 20 18 16 17 18 20 23 25 25 26 26 26 27 27 25 27 30 32 32 33 36 36 34 30
27 26 26 26 27 28 28 29 29 29 26 23 19 18 19 18 17 18 19 22 24 24 22 19 17 14 13 14 15 16 16 17 17 17 17 18 19 19 18 17 15 14 13 17 22 26 28 30 30 29 29 30 29 25 24 28 32 32 33 35 37 35 31
Wind_Direction
247 248 248 246 244 242 240 242 242 239 237 236 233 229 227 231 235 235 235 234 232 227 225 227 229 230 232 233 233 232 231 232 234 237 239 236 233 235 235 232 233 236 237 236 235 232 228 231 235 234 241 244 247 253 253 251 250 240 222 215 223 230 236
256 254 253 252 251 249 247 247 249 247 243 240 240 237 232 231 234 235 234 231 230 230 229 231 231 231 231 232 233 234 234 234 233 235 238 238 237 238 238 235 235 238 240 239 237 234 231 235 240 243 249 252 253 258 256 252 249 247 244 241 240 246 258
268 266 261 257 256 254 250 248 249 250 248 244 243 242 238 234 232 233 233 232 231 232 232 232 233 232 231 232 234 234 234 234 234 235 236 235 237 239 239 237 235 238 241 241 240 238 236 238 242 243 245 250 256 260 258 251 247 244 242 243 242 246 259
272 274 272 268 261 256 254 249 247 247 248 248 246 244 242 239 234 232 232 231 231 232 233 234 235 233 232 232 233 233 234 235 236 237 234 233 235 239 240 238 237 240 244 245 243 241 240 242 246 244 239 238 246 256 257 250 247 244 234 235 240 245 253
269 272 274 274 270 262 254 250 247 245 245 247 247 245 245 244 241 236 234 232 231 233 234 234 236 236 233 232 231 232 233 234 236 236 233 231 233 238 242 241 241 242 246 248 246 243 243 244 247 246 241 234 237 249 254 249 248 246 234 230 236 244 250
268 270 273 275 275 268 257 250 246 244 244 244 245 246 245 245 245 241 238 234 232 233 234 234 234 235 234 232 230 231 232 233 234 234 232 231 232 235 238 240 241 243 246 248 246 244 244 245 246 246 242 237 238 245 248 247 248 247 243 240 241 244 247
266 269 272 275 276 272 264 254 247 244 243 243 244 244 243 243 245 245 243 239 235 234 234 234 234 233 234 231 228 228 229 231 231 232 232 232 231 232 234 238 242 245 247 247 246 244 242 243 244 246 243 237 237 245 249 247 245 247 254 258 253 249 247
263 265 270 275 276 273 266 259 252 246 242 242 242 242 242 242 243 246 247 246 242 238 235 235 234 233 232 230 228 227 228 230 231 231 232 232 230 230 233 237 242 246 249 249 246 243 241 240 241 244 243 238 235 241 248 247 244 249 257 258 255 251 249
260 261 266 272 275 271 264 259 256 250 243 241 241 241 241 242 242 243 245 245 244 243 241 239 237 234 232 230 229 228 229 231 232 231 231 231 230 230 233 238 242 244 246 248 247 243 240 240 241 243 242 240 236 234 240 243 244 249 252 250 250 250 251
262 261 262 267 270 268 262 259 257 253 247 243 240 240 240 240 241 241 242 243 243 245 245 244 241 238 236 233 230 230 231 231 232 232 230 230 230 232 235 238 242 243 241 242 245 243 242 241 241 242 242 241 238 233 232 235 238 243 245 242 242 246 250
263 261 261 265 266 263 259 258 257 255 252 247 241 239 238 237 238 239 240 241 243 243 244 246 245 241 240 238 234 232 232 231 232 232 232 232 232 233 236 239 241 241 239 238 241 243 242 240 240 242 241 242 242 238 233 231 234 241 246 247 246 247 252
262 260 260 262 263 260 258 258 258 256 254 251 246 240 238 236 236 239 239 238 241 243 243 245 247 245 242 240 238 236 235 234 234 233 233 234 234 235 237 239 240 239 236 236 238 240 239 237 238 241 241 242 243 243 239 235 236 241 249 254 255 257 260
257 256 258 260 259 257 257 258 258 256 255 254 251 246 241 238 237 238 239 238 239 243 244 245 248 249 247 242 239 238 237 236 236 235 234 234 235 236 238 240 241 239 235 233 235 236 234 233 235 240 241 241 243 245 244 242 240 241 246 250 253 258 261
251 253 255 257 256 255 257 260 260 258 256 255 255 252 246 242 239 238 239 239 239 241 244 245 247 250 250 246 242 240 239 238 238 238 235 233 234 236 238 241 243 241 236 232 231 232 231 231 234 238 239 239 242 244 245 245 244 244 246 250 252 256 259
247 251 254 253 252 252 254 258 260 260 258 257 256 255 251 247 243 240 239 240 240 241 243 246 247 248 250 250 247 243 241 239 239 239 237 235 236 237 239 241 244 243 238 232 229 229 230 231 233 235 237 238 240 242 243 245 245 244 245 249 252 256 260
246 250 252 252 252 252 253 255 259 260 259 259 257 256 255 252 248 244 242 242 243 244 245 247 248 248 250 252 251 246 242 240 240 240 239 239 240 241 242 243 243 243 238 232 229 229 231 232 233 235 236 237 238 239 240 242 245 246 246 247 249 252 259
251 250 250 252 253 254 255 257 259 260 259 258 259 258 258 255 252 248 245 244 246 246 247 248 248 248 249 250 250 247 244 243 243 244 243 243 243 243 244 244 244 243 239 234 232 231 231 232 234 234 235 236 238 238 239 241 244 247 247 246 246 249 254
253 251 249 251 253 254 256 257 260 261 260 259 260 260 259 256 254 251 247 245 246 247 247 248 248 249 249 249 249 246 245 243 243 244 245 244 244 244 245 246 244 242 241 238 234 233 232 232 234 235 235 237 240 241 240 241 243 245 246 244 244 247 251
258 255 252 252 252 252 253 255 258 260 261 261 261 261 259 257 254 252 249 246 245 246 247 247 247 248 249 248 247 245 244 244 243 242 243 243 244 245 247 247 244 242 243 242 239 236 234 234 235 235 235 237 241 243 242 241 241 244 245 244 243 245 248
263 260 257 258 259 257 255 255 256 258 260 262 262 262 261 259 256 253 251 248 245 245 246 247 247 248 249 249 247 245 244 245 244 243 243 244 244 245 246 247 244 243 244 245 243 240 237 235 235 235 235 237 240 242 243 242 241 243 245 245 244 244 245
265 267 270 275 276 271 265 262 259 259 260 262 263 264 263 261 259 256 253 250 248 246 246 246 248 249 250 249 247 245 245 245 245 245 245 245 246 246 246 246 245 243 244 245 246 244 241 238 236 235 235 237 238 240 243 243 242 243 244 244 245 245 243
273 279 284 288 289 284 277 273 269 265 264 263 264 264 263 262 261 258 255 253 250 248 246 246 247 248 249 249 248 246 245 244 244 244 244 245 246 246 245 245 245 245 245 246 247 246 244 242 239 237 237 238 239 239 241 242 241 242 242 241 242 245 245
282 287 290 292 294 292 287 284 280 275 270 267 265 264 263 261 259 257 256 254 252 250 248 247 246 247 247 247 248 248 246 244 242 243 244 244 245 246 245 244 243 245 247 246 246 247 246 245 242 240 239 239 239 239 240 240 240 242 243 240 239 244 246
282 286 290 293 295 294 293 290 286 281 275 270 266 264 263 261 258 256 254 254 254 252 250 248 247 247 246 246 246 248 248 246 245 245 245 245 245 247 247 246 244 245 246 246 246 246 247 246 244 241 240 239 238 238 239 240 240 241 242 239 239 242 244
280 283 286 290 294 295 295 293 288 282 277 271 265 262 261 260 257 253 251 251 252 252 251 249 248 247 246 246 246 247 249 249 249 248 247 246 246 247 248 248 247 246 247 247 246 246 245 246 245 243 241 239 238 238 239 240 239 239 239 238 238 241 242
276 279 284 289 292 294 296 295 290 283 278 273 269 265 261 258 252 248 248 249 250 252 252 252 250 249 248 247 247 247 248 250 251 251 250 248 247 247 248 248 248 249 249 250 249 248 247 246 246 245 243 241 240 239 240 240 238 237 237 237 237 240 242
274 279 284 289 291 294 296 294 291 287 283 280 277 273 266 257 248 244 246 249 251 253 255 255 255 253 251 249 249 248 248 249 251 252 252 251 250 249 249 249 249 249 249 251 252 251 250 248 246 246 244 242 242 241 241 239 237 236 235 234 235 238 240
274 279 284 288 291 293 293 291 289 289 288 286 283 278 268 255 246 243 245 249 253 255 257 258 258 257 253 250 248 247 247 248 251 252 253 253 252 251 250 251 251 249 249 250 252 253 252 250 249 247 244 243 242 242 242 240 237 236 235 233 233 236 235
274 278 283 288 291 293 291 290 291 290 289 288 285 281 270 256 246 244 245 251 256 258 258 259 259 258 254 250 249 248 248 250 251 253 255 255 254 252 250 250 251 251 249 248 249 252 253 252 250 248 245 243 243 243 243 241 238 238 238 232 229 231 229
275 279 284 288 291 294 295 295 294 291 288 286 282 279 272 258 248 247 249 253 257 258 257 257 256 256 255 253 252 252 252 253 253 254 256 256 256 253 250 249 249 250 250 248 248 250 251 250 249 247 245 245 244 244 244 241 238 237 236 229 225 226 226
276 281 287 289 291 297 300 299 296 292 289 286 282 278 271 259 250 251 253 253 253 253 253 252 252 254 256 258 258 258 257 257 256 256 256 256 257 256 254 251 248 248 249 250 250 249 248 248 247 245 245 246 246 246 243 240 236 232 227 223 223 225 228
278 284 288 289 291 297 301 301 301 298 293 290 287 279 269 258 251 252 255 253 249 248 249 249 249 254 260 263 265 266 265 264 262 260 258 257 258 259 260 258 254 250 249 250 248 245 244 246 247 246 244 244 244 243 240 237 233 227 222 223 228 233 234
280 285 286 288 292 296 299 301 303 301 297 293 288 278 264 253 247 248 250 249 246 244 244 244 247 253 260 265 270 272 272 271 269 267 264 262 260 260 261 261 259 254 249 246 243 238 239 244 247 244 240 239 240 238 234 232 230 227 228 234 239 239 233
281 283 285 288 292 295 297 299 300 300 297 294 290 278 260 249 243 242 241 242 242 242 241 242 246 250 258 265 272 277 278 277 275 272 270 268 264 262 260 259 258 254 246 241 237 233 236 244 245 241 236 237 236 229 224 227 231 231 236 239 238 233 226
281 283 285 288 290 292 295 298 298 297 295 294 291 277 259 247 242 239 236 234 237 239 238 239 243 248 256 267 277 284 285 284 281 279 277 274 270 268 263 256 253 249 243 238 234 230 234 242 241 230 220 223 227 222 222 233 240 238 236 233 227 224 224
282 283 283 285 288 291 294 295 296 296 296 295 288 273 258 248 243 241 235 229 231 234 233 235 238 244 256 269 280 288 290 290 289 287 285 280 274 272 267 259 255 250 240 235 231 228 232 235 229 216 213 222 230 229 230 236 238 232 228 225 222 222 223
281 280 280 284 288 292 293 294 295 296 296 293 283 268 258 250 246 246 240 230 229 231 230 230 233 240 255 268 278 286 290 292 293 292 291 284 275 269 265 262 265 265 251 238 230 223 223 226 225 221 220 225 231 232 230 229 228 226 224 223 223 225 227
Height
3168 3169 3169 3169 3169 3170 3170 3170 3170 3170 3170 3171 3171 3171 3171 3171 3171 3172 3172 3172 3173 3173 3175 3176 3176 3177 3177 3178 3178 3179 3180 3180 3181 3181 3181 3181 3182 3183 3183 3183 3184 3184 3184 3185 3185 3185 3185 3185 3184 3184 3185 3185 3185 3185 3186 3186 3187 3187 3188 3188 3188 3188 3188
3167 3167 3167 3168 3168 3168 3168 3168 3168 3168 3168 3169 3169 3169 3169 3170 3170 3170 3170 3170 3171 3171 3172 3173 3174 3175 3175 3176 3176 3177 3178 3178 3179 3179 3179 3180 3180 3181 3181 3182 3182 3182 3182 3183 3183 3184 3184 3184 3183 3183 3183 3184 3184 3184 3184 3185 3185 3186 3187 3187 3187 3187 3187
3165 3165 3166 3166 3166 3166 3166 3166 3166 3166 3166 3166 3167 3167 3168 3168 3168 3168 3168 3169 3169 3169 3170 3170 3171 3172 3173 3174 3174 3175 3175 3176 3177 3177 3177 3177 3178 3178 3179 3180 3180 3180 3181 3181 3181 3182 3182 3182 3182 3182 3182 3182 3183 3183 3183 3184 3184 3185 3186 3186 3186 3186 3186
3163 3163 3164 3164 3165 3165 3165 3165 3165 3164 3164 3164 3165 3165 3165 3166 3166 3166 3167 3167 3167 3167 3167 3168 3168 3169 3170 3171 3171 3172 3173 3173 3174 3175 3175 3175 3176 3176 3177 3178 3178 3179 3179 3179 3179 3180 3180 3180 3181 3181 3181 3181 3182 3182 3182 3183 3184 3184 3184 3185 3185 3185 3185
3161 3161 3162 3162 3163 3163 3163 3163 3163 3163 3162 3162 3162 3163 3163 3163 3164 3164 3165 3165 3165 3165 3165 3165 3166 3166 3167 3167 3168 3169 3170 3171 3172 3172 3173 3173 3174 3174 3175 3175 3176 3176 3176 3177 3177 3177 3178 3178 3179 3180 3180 3180 3180 3180 3181 3182 3182 3183 3183 3184 3184 3184 3184
3159 3159 3159 3160 3160 3160 3161 3161 3161 3161 3160 3160 3160 3161 3161 3161 3161 3162 3163 3163 3163 3163 3163 3163 3163 3163 3163 3164 3165 3166 3167 3168 3169 3169 3170 3171 3172 3172 3173 3173 3173 3173 3174 3175 3175 3175 3175 3176 3177 3178 3178 3178 3179 3179 3180 3180 3181 3181 3182 3182 3182 3183 3183
3156 3157 3157 3158 3158 3158 3158 3158 3158 3158 3158 3158 3158 3158 3159 3159 3159 3159 3159 3160 3161 3161 3160 3160 3160 3161 3160 3161 3161 3163 3164 3165 3166 3166 3167 3168 3169 3169 3170 3170 3171 3171 3172 3172 3172 3173 3173 3174 3175 3176 3176 3177 3177 3178 3178 3179 3179 3180 3181 3181 3181 3181 3181
3154 3154 3155 3155 3155 3155 3155 3155 3155 3155 3156 3155 3155 3156 3156 3156 3156 3157 3157 3158 3158 3158 3158 3158 3158 3158 3158 3158 3159 3160 3161 3162 3163 3164 3164 3165 3166 3167 3167 3167 3168 3168 3169 3169 3170 3170 3171 3171 3172 3173 3174 3175 3175 3176 3177 3177 3178 3178 3179 3179 3179 3179 3180
3152 3152 3152 3152 3153 3153 3153 3153 3153 3152 3153 3152 3152 3153 3153 3153 3154 3154 3155 3155 3155 3155 3155 3155 3156 3156 3156 3156 3156 3157 3158 3159 3160 3161 3162 3162 3163 3164 3164 3164 3164 3165 3166 3166 3167 3168 3169 3169 3170 3171 3172 3173 3173 3173 3174 3175 3176 3176 3176 3177 3177 3178 3178
3150 3150 3150 3150 3150 3150 3150 3149 3149 3149 3149 3149 3149 3150 3150 3150 3151 3151 3152 3152 3152 3152 3153 3153 3154 3153 3153 3153 3154 3155 3155 3156 3157 3157 3158 3159 3160 3160 3161 3161 3161 3162 3163 3163 3164 3165 3166 3167 3168 3168 3169 3170 3171 3171 3172 3173 3173 3173 3173 3174 3175 3176 3176
3147 3147 3147 3147 3147 3147 3146 3146 3146 3146 3146 3146 3146 3146 3146 3147 3147 3148 3148 3149 3149 3149 3150 3151 3151 3151 3151 3151 3152 3152 3152 3153 3153 3154 3155 3156 3156 3157 3157 3157 3157 3158 3159 3159 3160 3162 3163 3164 3165 3166 3167 3167 3168 3168 3168 3170 3170 3171 3172 3173 3173 3174 3175
3144 3144 3144 3144 3144 3144 3143 3143 3143 3142 3142 3142 3142 3142 3143 3143 3144 3144 3145 3146 3146 3146 3146 3147 3148 3148 3148 3148 3149 3149 3150 3150 3150 3151 3152 3152 3153 3153 3153 3153 3153 3154 3155 3156 3157 3158 3159 3161 3162 3163 3164 3164 3165 3165 3166 3167 3168 3170 3171 3172 3173 3173 3174
3141 3141 3141 3141 3141 3141 3140 3140 3139 3139 3138 3138 3138 3139 3139 3140 3140 3141 3142 3142 3143 3143 3143 3144 3144 3144 3145 3145 3146 3146 3146 3147 3147 3147 3148 3148 3149 3149 3149 3150 3150 3150 3152 3152 3153 3154 3155 3157 3159 3160 3161 3161 3161 3162 3164 3164 3166 3168 3169 3170 3171 3172 3172
3137 3137 3137 3137 3137 3137 3137 3137 3136 3136 3136 3135 3135 3135 3136 3136 3136 3137 3138 3138 3139 3139 3140 3140 3141 3141 3141 3142 3142 3143 3143 3144 3144 3144 3144 3145 3145 3145 3146 3146 3146 3147 3148 3148 3149 3151 3152 3154 3156 3157 3158 3158 3158 3159 3161 3162 3163 3165 3166 3167 3169 3169 3169
3134 3134 3134 3134 3134 3134 3134 3134 3133 3133 3133 3133 3132 3132 3132 3132 3132 3133 3134 3135 3136 3136 3137 3138 3138 3138 3138 3139 3139 3140 3140 3140 3141 3141 3141 3142 3142 3142 3142 3142 3143 3144 3144 3144 3146 3147 3148 3150 3152 3153 3155 3155 3155 3156 3158 3159 3160 3162 3164 3165 3166 3166 3166
3131 3131 3131 3130 3130 3130 3130 3130 3130 3130 3130 3130 3129 3129 3129 3129 3129 3129 3130 3131 3132 3133 3134 3135 3135 3135 3135 3136 3136 3136 3137 3137 3138 3138 3138 3139 3139 3139 3139 3139 3140 3140 3140 3140 3142 3143 3145 3147 3148 3150 3151 3151 3152 3153 3154 3156 3157 3159 3161 3163 3163 3163 3163
3128 3128 3128 3127 3126 3126 3127 3127 3127 3127 3127 3127 3126 3126 3126 3126 3126 3126 3127 3128 3129 3130 3131 3131 3132 3132 3132 3132 3133 3133 3134 3134 3135 3135 3135 3136 3136 3136 3136 3136 3136 3137 3137 3137 3138 3140 3141 3143 3144 3146 3147 3148 3149 3150 3151 3153 3155 3156 3158 3159 3160 3160 3160
3125 3125 3124 3123 3123 3123 3123 3124 3124 3124 3124 3124 3123 3123 3123 3122 3122 3122 3123 3124 3125 3125 3126 3127 3128 3128 3128 3128 3129 3130 3130 3131 3131 3131 3132 3132 3132 3133 3132 3132 3133 3134 3134 3134 3135 3136 3137 3138 3140 3142 3143 3145 3146 3147 3149 3150 3152 3153 3154 3156 3157 3158 3157
3122 3122 3121 3120 3119 3119 3119 3120 3121 3121 3121 3121 3120 3120 3119 3119 3119 3118 3119 3120 3120 3121 3122 3122 3123 3123 3124 3124 3125 3126 3126 3126 3127 3127 3127 3128 3128 3128 3129 3129 3130 3130 3131 3131 3132 3133 3134 3135 3136 3138 3140 3142 3144 3145 3146 3147 3148 3149 3150 3152 3153 3154 3154
3118 3118 3117 3116 3116 3116 3116 3117 3117 3117 3117 3117 3117 3117 3116 3115 3115 3114 3115 3115 3116 3117 3117 3118 3118 3119 3119 3120 3121 3122 3122 3122 3122 3123 3123 3124 3124 3124 3125 3125 3126 3127 3127 3128 3128 3129 3130 3131 3132 3134 3136 3138 3140 3142 3143 3143 3144 3145 3147 3148 3149 3151 3151
3114 3114 3113 3113 3113 3113 3113 3113 3113 3113 3113 3113 3113 3113 3112 3112 3111 3111 3111 3111 3112 3113 3113 3113 3114 3114 3115 3115 3116 3117 3118 3118 3118 3119 3119 3120 3120 3120 3121 3121 3122 3123 3124 3124 3125 3125 3126 3127 3128 3130 3132 3134 3135 3137 3139 3139 3140 3142 3143 3145 3146 3147 3148
3110 3110 3110 3110 3110 3110 3109 3109 3108 3108 3108 3109 3109 3108 3108 3108 3107 3107 3107 3107 3108 3108 3108 3109 3109 3110 3110 3111 3111 3113 3113 3114 3114 3115 3115 3116 3116 3117 3117 3118 3118 3119 3119 3120 3121 3122 3122 3123 3124 3125 3127 3129 3130 3132 3134 3135 3136 3138 3139 3141 3142 3143 3144
3107 3107 3107 3107 3107 3106 3106 3105 3104 3104 3104 3104 3104 3103 3103 3103 3103 3103 3103 3103 3103 3103 3103 3104 3104 3105 3105 3106 3106 3107 3108 3110 3110 3110 3111 3111 3112 3113 3114 3114 3114 3115 3115 3116 3116 3117 3118 3118 3119 3121 3122 3124 3126 3127 3129 3130 3132 3133 3135 3137 3138 3139 3140
3104 3104 3104 3103 3103 3103 3103 3102 3101 3100 3099 3099 3098 3098 3098 3098 3098 3099 3099 3099 3099 3098 3098 3099 3099 3100 3100 3101 3102 3102 3103 3104 3106 3106 3107 3107 3108 3109 3110 3110 3110 3110 3111 3111 3112 3113 3113 3114 3115 3116 3117 3119 3121 3122 3123 3125 3127 3129 3131 3133 3134 3134 3136
3101 3101 3101 3101 3100 3099 3099 3098 3097 3096 3095 3094 3093 3093 3093 3093 3094 3094 3095 3095 3094 3093 3093 3094 3094 3095 3096 3096 3097 3098 3098 3099 3101 3102 3102 3103 3104 3104 3105 3105 3106 3106 3106 3107 3108 3108 3108 3109 3110 3111 3112 3115 3116 3118 3119 3120 3122 3124 3126 3128 3129 3130 3132
3098 3098 3098 3097 3096 3095 3094 3094 3093 3092 3090 3089 3088 3088 3088 3088 3089 3089 3090 3090 3089 3089 3089 3089 3090 3090 3091 3092 3092 3093 3094 3094 3095 3097 3098 3098 3099 3099 3100 3100 3101 3101 3102 3102 3102 3103 3104 3105 3105 3106 3107 3109 3111 3113 3114 3116 3117 3119 3121 3123 3124 3126 3128
3095 3095 3094 3094 3093 3092 3091 3089 3088 3087 3085 3084 3083 3083 3084 3084 3084 3085 3086 3086 3085 3085 3085 3085 3085 3086 3087 3087 3088 3088 3089 3090 3091 3092 3092 3093 3094 3095 3095 3095 3096 3097 3097 3097 3098 3099 3100 3100 3100 3101 3102 3104 3106 3108 3109 3111 3113 3114 3115 3117 3119 3122 3124
3092 3092 3091 3090 3089 3089 3087 3086 3084 3082 3081 3080 3080 3080 3080 3080 3080 3081 3082 3081 3081 3081 3081 3081 3081 3082 3083 3083 3083 3084 3085 3085 3086 3087 3087 3088 3089 3090 3090 3090 3090 3091 3092 3093 3093 3094 3094 3094 3095 3096 3097 3099 3101 3102 3104 3106 3108 3109 3110 3112 3115 3118 3121
3089 3089 3088 3087 3086 3085 3084 3082 3081 3079 3078 3077 3077 3076 3076 3076 3076 3077 3077 3077 3078 3078 3078 3078 3078 3078 3079 3079 3080 3080 3080 3081 3081 3082 3082 3083 3084 3084 3085 3085 3085 3086 3087 3088 3089 3089 3089 3089 3090 3091 3092 3094 3095 3097 3098 3100 3103 3105 3107 3109 3111 3113 3116
3086 3085 3085 3084 3083 3082 3080 3079 3078 3076 3075 3074 3074 3073 3073 3073 3073 3073 3073 3073 3074 3074 3075 3075 3075 3075 3075 3076 3076 3077 3077 3077 3077 3077 3078 3078 3078 3079 3079 3080 3080 3081 3081 3082 3083 3084 3084 3084 3085 3086 3088 3089 3090 3092 3093 3095 3097 3100 3103 3105 3106 3108 3111
3082 3082 3081 3080 3079 3078 3077 3076 3075 3073 3072 3072 3071 3070 3070 3070 3070 3070 3069 3070 3070 3071 3071 3071 3072 3072 3072 3073 3073 3073 3073 3073 3073 3073 3073 3073 3073 3073 3074 3074 3075 3076 3076 3077 3078 3079 3079 3079 3080 3082 3083 3084 3084 3086 3087 3089 3092 3094 3098 3100 3100 3102 3105
3078 3078 3077 3077 3076 3075 3074 3072 3071 3070 3069 3068 3068 3067 3067 3067 3066 3066 3066 3066 3066 3067 3068 3068 3069 3069 3069 3070 3070 3070 3069 3069 3068 3068 3068 3068 3068 3068 3068 3069 3070 3071 3071 3072 3073 3074 3074 3075 3076 3078 3079 3079 3079 3080 3082 3084 3087 3090 3093 3094 3095 3097 3100
3075 3075 3074 3073 3072 3071 3070 3069 3068 3067 3066 3065 3065 3064 3063 3063 3063 3063 3063 3063 3063 3064 3065 3065 3066 3066 3066 3066 3066 3066 3066 3065 3064 3064 3063 3064 3064 3064 3064 3063 3064 3065 3066 3067 3068 3069 3070 3071 3072 3073 3074 3074 3074 3074 3076 3079 3082 3085 3088 3089 3091 3094 3095
3072 3072 3071 3070 3069 3068 3067 3066 3065 3064 3063 3062 3061 3061 3060 3059 3060 3060 3060 3060 3060 3061 3062 3063 3063 3063 3063 3063 3063 3063 3063 3062 3061 3060 3059 3059 3059 3060 3060 3059 3059 3060 3061 3062 3063 3065 3067 3068 3068 3068 3069 3069 3070 3071 3073 3076 3079 3081 3083 3085 3088 3090 3092
3069 3068 3068 3067 3066 3065 3064 3063 3062 3061 3060 3058 3058 3057 3057 3056 3056 3057 3057 3057 3057 3058 3059 3060 3061 3061 3061 3061 3061 3060 3060 3059 3058 3057 3056 3055 3055 3055 3055 3056 3056 3056 3057 3058 3060 3062 3063 3064 3065 3065 3066 3068 3070 3072 3073 3074 3076 3078 3080 3081 3085 3088 3090
3066 3065 3064 3064 3063 3062 3061 3060 3059 3057 3056 3055 3054 3054 3053 3053 3053 3053 3053 3054 3054 3055 3057 3058 3058 3058 3058 3058 3058 3057 3057 3056 3055 3054 3053 3052 3051 3051 3051 3052 3052 3053 3054 3056 3057 3058 3060 3060 3061 3063 3065 3066 3068 3070 3071 3072 3073 3075 3077 3079 3081 3085 3087
3063 3062 3061 3061 3060 3059 3058 3056 3055 3053 3052 3051 3051 3050 3050 3050 3050 3050 3050 3051 3052 3053 3054 3055 3056 3056 3055 3055 3055 3055 3054 3053 3052 3051 3051 3049 3049 3048 3048 3049 3049 3050 3052 3054 3054 3054 3055 3056 3058 3059 3061 3063 3065 3067 3068 3069 3070 3072 3074 3076 3078 3081 3083